Weather History for KCLT - December, 2012

Change the Weather History Date:

Saturday, December 29, 2012

  Actual Average Record
Temperature  
Mean Temperature 45 °F 40 °F  
Max Temperature 53 °F 51 °F 74 °F (1984)
Min Temperature 36 °F 30 °F 2 °F (1894)
Degree Days  
Heating Degree Days 20 25  
Month to date heating degree days 439 651  
Since 1 July heating degree days 1125 1287  
Cooling Degree Days 0 0  
Month to date cooling degree days 0 0  
Year to date cooling degree days 1790 1517  
Moisture  
Dew Point 34 °F    
Average Humidity 77    
Maximum Humidity 100    
Minimum Humidity 53    
Precipitation  
Precipitation 0.28 in 0.10 in 1.82 in (2013)
Month to date precipitation 3.84 3.05  
Year to date precipitation 33.69 41.43  
Snow  
Snow 0.00 in 0.00 in 11.00 in (1880)
Month to date snowfall 0.0 0.2  
Since 1 July snowfall 0.0 0.3  
Snow Depth 0.00 in    
Sea Level Pressure  
Sea Level Pressure 29.84 in    
Wind  
Wind Speed 7 mph (NNW)    
Max Wind Speed 17 mph    
Max Gust Speed 23 mph    
Visibility 6 miles    
Events Rain    
T = Trace of Precipitation, MM = Missing Value Source: NWS Daily Summary

Daily Weather History Graph

Daily Weather History Graph

Search for Another Location

Airport or City:

Trip Planner

Search our weather history database for the weather conditions in past years. The results will help you decide how hot, cold, wet, or windy it might be!

Date:

Astronomy

Dec. 29, 2012 Rise Set
Actual Time 7:31 AM EST 5:20 PM EST
Civil Twilight 7:03 AM EST 5:48 PM EST
Nautical Twilight 6:31 AM EST 6:20 PM EST
Astronomical Twilight 6:00 AM EST 6:51 PM EST
Moon 6:48 PM EST (12/29) 8:07 AM EST (12/29)
Length of Visible Light 10h 45m
Length of Day
9h 48m
Full, 98% of the Moon is Illuminated
Dec 29
Full
Jan 4
Last Quarter
Jan 11
New
Jan 18
First Quarter
Jan 26
Full

Hourly Weather History & Observations

Time (EST) Temp. Windchill Dew Point Humidity Pressure Visibility Wind Dir Wind Speed Gust Speed Precip Events Conditions
12:52 AM 39.0 °F 35.7 °F 30.9 °F 73% 29.97 in 7.0 mi North 4.6 mph - N/A   Overcast
1:52 AM 39.9 °F 36.7 °F 30.9 °F 70% 29.94 in 6.0 mi East 4.6 mph - 0.00 in Rain Light Rain
2:14 AM 39.2 °F 35.9 °F 33.8 °F 81% 29.93 in 5.0 mi East 4.6 mph - 0.00 in Rain Light Rain
2:27 AM 39.2 °F 35.9 °F 33.8 °F 81% 29.91 in 4.0 mi ENE 4.6 mph - 0.02 in Rain Light Rain
2:52 AM 37.9 °F - 34.0 °F 86% 29.92 in 5.0 mi Calm Calm - 0.05 in Rain Rain
3:52 AM 37.9 °F 33.5 °F 35.1 °F 89% 29.88 in 5.0 mi East 5.8 mph - 0.12 in Rain Rain
4:52 AM 37.0 °F 31.6 °F 36.0 °F 96% 29.77 in 4.0 mi East 6.9 mph - 0.10 in Rain Rain
5:18 AM 37.4 °F 34.9 °F 35.6 °F 93% 29.77 in 4.0 mi ENE 3.5 mph - 0.01 in   Mostly Cloudy
5:21 AM 37.4 °F - 35.6 °F 93% 29.77 in 4.0 mi Calm Calm - 0.01 in   Mostly Cloudy
5:52 AM 37.9 °F 34.4 °F 36.0 °F 93% 29.77 in 7.0 mi North 4.6 mph - 0.01 in   Overcast
6:39 AM 37.4 °F 33.8 °F 37.4 °F 100% 29.77 in 2.5 mi NW 4.6 mph - N/A   Overcast
6:52 AM 37.9 °F 34.4 °F 36.0 °F 93% 29.78 in 2.5 mi NW 4.6 mph - N/A   Overcast
7:18 AM 37.4 °F 32.8 °F 37.4 °F 100% 29.79 in 1.5 mi NW 5.8 mph - 0.00 in   Light Drizzle
7:52 AM 37.0 °F 34.5 °F 36.0 °F 96% 29.81 in 1.5 mi NNW 3.5 mph - 0.00 in   Light Drizzle
8:52 AM 37.9 °F - 37.9 °F 100% 29.79 in 1.5 mi Calm Calm - 0.00 in   Overcast
9:52 AM 39.9 °F - 39.0 °F 97% 29.79 in 1.5 mi Calm Calm - N/A   Overcast
10:52 AM 41.0 °F 37.1 °F 39.9 °F 96% 29.79 in 1.5 mi WSW 5.8 mph - N/A   Overcast
11:14 AM 42.8 °F 39.3 °F 39.2 °F 87% 29.78 in 3.0 mi West 5.8 mph - N/A   Overcast
11:52 AM 43.0 °F 40.3 °F 39.9 °F 89% 29.78 in 5.0 mi WNW 4.6 mph - N/A   Overcast
12:52 PM 46.9 °F - 39.9 °F 77% 29.75 in 7.0 mi West 8.1 mph - N/A   Mostly Cloudy
1:28 PM 48.2 °F - 39.2 °F 71% 29.74 in 8.0 mi Variable 6.9 mph - N/A   Scattered Clouds
1:52 PM 48.9 °F - 39.0 °F 69% 29.74 in 9.0 mi West 9.2 mph - N/A   Scattered Clouds
2:52 PM 51.1 °F - 37.9 °F 61% 29.75 in 10.0 mi NW 10.4 mph 18.4 mph N/A   Scattered Clouds
3:52 PM 53.1 °F - 37.9 °F 57% 29.76 in 10.0 mi NW 5.8 mph - N/A   Mostly Cloudy
4:52 PM 48.9 °F - 32.0 °F 52% 29.81 in 10.0 mi NW 12.7 mph - N/A   Mostly Cloudy
5:52 PM 45.0 °F 40.6 °F 30.0 °F 56% 29.84 in 10.0 mi NW 8.1 mph - N/A   Mostly Cloudy
6:52 PM 43.0 °F 36.0 °F 28.0 °F 56% 29.88 in 10.0 mi NNW 13.8 mph 21.9 mph N/A   Overcast
8:52 PM 39.9 °F 32.9 °F 25.0 °F 55% 29.96 in 10.0 mi NW 11.5 mph 17.3 mph N/A   Partly Cloudy
9:52 PM 37.9 °F 30.5 °F 25.0 °F 60% 29.98 in 10.0 mi NW 11.5 mph 18.4 mph N/A   Partly Cloudy
10:52 PM 36.0 °F 31.1 °F 24.1 °F 62% 30.01 in 10.0 mi NW 5.8 mph - N/A   Clear
11:52 PM 36.0 °F 31.1 °F 23.0 °F 59% 30.05 in 10.0 mi NW 5.8 mph - N/A   Clear